Regional Weather Roundup
Issued by NWS Cleveland, OH

Home | Current Version | Previous Version | Graphics & Text | Print | Product List | Glossary On
Versions: 1 2 3 4 5 6 7 8 9 10 11 12 13 14 15 16 17 18 19 20 21 22 23 24 25 26 27 28 29 30 31 32 33 34 35 36 37 38 39 40 41 42 43 44 45 46 47 48 49 50
000
ASUS41 KCLE 252310
RWRCLE
OHIO REGIONAL WEATHER ROUNDUP
NATIONAL WEATHER SERVICE WILMINGTON, OH
600 PM EST THU DEC 25 2014

NOTE: "FAIR" INDICATES FEW OR NO CLOUDS BELOW 12,000 FEET WITH NO
SIGNIFICANT WEATHER AND/OR OBSTRUCTIONS TO VISIBILITY.

OHZ001>008-015>018-024>027-034-035-043-044-260000-
   NORTHWEST OHIO

CITY           SKY/WX    TMP DP  RH WIND       PRES   REMARKS
DEFIANCE       CLOUDY    38  31  76 SW8       30.11R
FINDLAY        CLOUDY    38  30  73 SW15G22   30.12R
TOLEDO EXPRESS CLOUDY    37  29  72 SW9       30.10R
TOLEDO METCALF CLOUDY    38  30  73 SW12      30.12R
LIMA           CLOUDY    39  30  70 SW9       30.12R
$$

OHZ009>014-019>023-028>033-038-089-260000-
   NORTHEAST OHIO

CITY           SKY/WX    TMP DP  RH WIND       PRES   REMARKS
CLE-HOPKINS    CLOUDY    38  30  73 SW10      30.14R
CLE-LAKEFRONT  CLOUDY    40  29  64 SW12      30.12R
CUY CO. ARPT   CLOUDY    39  30  70 W16       30.12R
LORAIN-ELYRIA  CLOUDY    38  30  73 W14       30.13R
ASHTABULA      CLOUDY    38  29  70 W12       30.10R
AKRON-CANTON   CLOUDY    38  28  67 SW12      30.12R
WOOSTER        CLOUDY    37  29  72 W9        30.13R
MANSFIELD      CLOUDY    37  30  75 SW10      30.12R
YOUNGSTOWN     CLOUDY    37  28  70 W10       30.10R
$$

OHZ042-051>053-060>062-070>072-077>081-260000-
  SOUTHWEST OHIO

CITY           SKY/WX    TMP DP  RH WIND       PRES   REMARKS
CINC-COVINGTON PTCLDY    39  28  65 S5        30.17R
CINC-LUNKEN    MOCLDY    38  32  79 S8        30.19R
HAMILTON       MOCLDY    40  31  70 SW5       30.19R
DAYTON         CLOUDY    40  32  73 S8        30.16R
WRIGHT-PAT AFB CLOUDY    39  31  70 SW14      30.17R
DAYTON GENERAL CLOUDY    39  31  72 SW7       30.16R
WILMINGTON     CLOUDY    38  30  73 SW13      30.16R
$$

OHZ036-037-039>041-045>050-054>059-063>069-073>076-082>088-260000-
  CENTRAL AND SOUTHEAST OHIO

CITY           SKY/WX    TMP DP  RH WIND       PRES   REMARKS
COLUMBUS       CLOUDY    39  30  70 SW6       30.16R
OSU AIRPORT    CLOUDY    39  30  70 SW5       30.15R
BOLTON FIELD   CLOUDY    39  34  81 SW7       30.16R
RICKENBACK AFB CLOUDY    39  32  77 SW7       30.17R
NEWARK         CLOUDY    40  31  70 SW5       30.15R
MARION         CLOUDY    38  30  73 W10       30.14R
LANCASTER      CLOUDY    40  32  73 SW5       30.17R
ZANESVILLE     CLOUDY    38  28  67 W6        30.17R
NEW PHILLY     CLOUDY    40  29  64 SW3       30.16R
$$



USA.gov is the U.S. government's official web portal to all federal, state and local government web resources and services.